Location: Unspecified
(39.1734°N, 0.0000°E)
Time: 10:50:41
(UTC+00:00)

OTV 5 (USA 277) - Visible Passes

Search period start: 15 October 2019 00:00
Search period end: 25 October 2019 00:00
Orbit: 310 x 324 km, 54.5° (Epoch: 08 October)

Date Brightness Start Highest point End Pass type
(mag) Time Alt. Az. Time Alt. Az. Time Alt. Az.
15 Oct ? 05:27:06 10° NNE 05:27:29 10° NNE 05:27:51 10° NNE visible
16 Oct ? 05:40:15 10° NNW 05:42:20 19° NNE 05:44:25 10° E visible
18 Oct ? 04:36:01 12° N 04:37:02 14° NNE 04:38:34 10° ENE visible
19 Oct ? 04:50:31 19° N 04:51:49 28° NE 04:54:15 10° E visible
20 Oct ? 05:05:08 27° NW 05:06:26 86° NE 05:09:09 10° SE visible
21 Oct ? 05:19:54 21° W 05:20:54 27° SW 05:23:16 10° SSE visible
22 Oct ? 04:03:51 10° ESE 04:03:51 10° ESE 04:03:55 10° ESE visible
